User: anonymous   Login
Location: Unspecified
(0.0000°N, 0.0000°E)
Time: 17:24:50
(UTC+02:00)
Language:

Cosmos 1703 - Orbit

View from above orbital plane
View from above orbital plane
View from above satellite
View from above satellite

Ground track
Ground track

The orbit data is extracted from the following two-line orbital elements,

1 16262U 85108A   14295.09092726  .00005610  00000-0  37900-3 0  5434
2 16262 082.4892 119.2249 0013241 040.2330 319.9875 15.06333535572744
Epoch (UTC): 22 October 2014 02:10:56
Eccentricity: 0.0013241
inclination: 82.4892°
perigee height: 538 km
apogee height: 556 km
right ascension of ascending node: 119.2249°
argument of perigee: 40.2330°
revolutions per day: 15.06333535
mean anomaly at epoch: 319.9875°
orbit number at epoch: 57274

The dashed part of the orbit path shows where the satellite is in the earth's shadow,  

DLR